SAMESCEL

Guest
Details From SAME - El Plumerillo
To SCEL - Arturo Merino Benitez Intl
Flight Number -
Tags decoded
Created
Modified
Stats Distance 111 nm / 206 km
Max Altitude 0 ft / 0 m
Waypoints 3
Social Downloads 5
Likes 0
Share VATSIM

Download

Looking for another format? Having issues loading an existing format? Contact us
Advertisement - Login to hide

Notes

Requested: SAME UMKA2A UMKAL NAVAR5 SCEL Unmatched points: UMKA2A NAVAR5

Route

SAME UMKAL SCEL

ID Type Via Altitude Latitude Longitude Leg Dist Tot Dist Heading (true) Name
O SAME APT - 0 ft / 0 m -32.83175˚ -68.79294˚ - 0 nm - El Plumerillo
UMKAL FIX - 0 ft / 0 m -32.88333˚ -70.00000˚ 60 nm 60 nm 267° / 267° -
O SCEL APT - 0 ft / 0 m -33.38978˚ -70.79437˚ 50 nm 111 nm 232° / 233° Arturo Merino Benitez Intl

Altitude Profile

Advertisement - Login to hide

SAME

Details ICAO SAME (MDZ)
Name El Plumerillo
Region Argentina
Timezone America/Argentina/Mendoza (UTC-3.0)
Stats Elevation 2,310 ft / 704 m (AMSL)
Location -32.831753° -68.792941°
Runways 1
Magnetic Variation 0.380° W

METAR

SAME 140400Z 00000KT CAVOK 23/12 Q1016

Decode

TAF

TAF SAME 132300Z 1400/1424 14005KT 9999 SCT040 TX32/1420Z TN20/1410Z

Decode

Departure Runways

ID Width Length Bearing (true) Bearing (mag) Surface Threshold Offset Overrun Length
18 177 ft / 54 m 9,915 ft / 3,022 m 180.83° 181.21° Concrete 381 ft / 116 m 0 ft / 0 m
36 177 ft / 54 m 9,915 ft / 3,022 m 0.83° 1.21° Concrete 361 ft / 110 m 0 ft / 0 m

SCEL

Details ICAO SCEL (SCL)
Name Arturo Merino Benitez Intl
Region Chile
Timezone America/Santiago (UTC-3.0)
Stats Elevation 1,550 ft / 472 m (AMSL)
Location -33.389775° -70.794366°
Runways 2
Magnetic Variation 1.802° E

METAR

SCEL 140400Z 17004KT CAVOK 17/11 Q1018 NOSIG

Decode

TAF

TAF SCEL 132206Z 1400/1424 22012KT CAVOK TX32/1419Z TN13/1410Z BECMG 1401/1403 VRB03KT 8000 TEMPO 1406/1412 00000KT 5000 BR BECMG 1413/1415 21007KT CAVOK

Decode

Destination Runways

ID Width Length Bearing (true) Bearing (mag) Surface Threshold Offset Overrun Length
17L 180 ft / 55 m 10,523 ft / 3,207 m 177.43° 175.63° Asphalt 0 ft / 0 m 0 ft / 0 m
17R 148 ft / 45 m 12,504 ft / 3,811 m 177.44° 175.64° Asphalt 0 ft / 0 m 0 ft / 0 m
35L 148 ft / 45 m 12,504 ft / 3,811 m 357.44° 355.64° Asphalt 0 ft / 0 m 0 ft / 0 m
35R 180 ft / 55 m 10,523 ft / 3,207 m 357.43° 355.63° Asphalt 1,800 ft / 549 m 0 ft / 0 m

Approach Navaids

Runway Type Ident Frequency Range Bearing (true) Bearing (mag) Slope Elevation
17L Localiser IUEL 110.30 MHz 18 nm / 33 km 173.64° 171.84° - 1,555 ft / 474 m (AMSL)
17L Glidescope IUEL 110.30 MHz 10 nm / 19 km 174.00° 172.20° 3.00° 1,555 ft / 474 m (AMSL)
17L DME IUEL 110.30 MHz 18 nm / 33 km - - - 1,557 ft / 475 m (AMSL)
17R Localiser IMER 111.10 MHz 18 nm / 33 km 174.24° 172.44° - 1,555 ft / 474 m (AMSL)
17R Glidescope IMER 111.10 MHz 10 nm / 19 km 174.00° 172.20° 3.00° 1,555 ft / 474 m (AMSL)
17R DME IMER 111.10 MHz 18 nm / 33 km - - - 1,555 ft / 474 m (AMSL)

Popular Alternatives